Weather History for Rensselaer, IN

Change the Weather History Date:

Wednesday, December 21, 2011

  Actual Average (KVPZ) Record (KVPZ)
Temperature  
Mean Temperature 40 °F 26 °F  
Max Temperature 42 °F 33 °F 51 °F (2006)
Min Temperature 39 °F 20 °F -5 °F (2008)
Degree Days  
Heating Degree Days 24 39  
Month to date heating degree days 746  
Since 1 July heating degree days 2004  
Cooling Degree Days 0 0  
Month to date cooling degree days 0  
Year to date cooling degree days 713  
Moisture  
Dew Point 41 °F    
Average Humidity 98    
Maximum Humidity 100    
Minimum Humidity 93    
Precipitation  
Precipitation 0.00 in 0.07 in 0.44 in (2013)
Month to date precipitation 1.54  
Year to date precipitation 36.87  
Sea Level Pressure  
Sea Level Pressure 29.73 in    
Wind  
Wind Speed 6 mph (WSW)    
Max Wind Speed 16 mph    
Max Gust Speed 24 mph    
Visibility 4 miles    
Events Fog , Rain    
T = Trace of Precipitation, MM = Missing Value Source: NWS Daily Summary

Daily Weather History Graph

Daily Weather History Graph

Search for Another Location

Airport:

Trip Planner

Search our weather history database for the weather conditions in past years. The results will help you decide how hot, cold, wet, or windy it might be!

Date:

Astronomy

Dec. 21, 2011 Rise Set
Actual Time 7:09 AM CST 4:23 PM CST
Civil Twilight 6:38 AM CST 4:54 PM CST
Nautical Twilight 6:04 AM CST 5:29 PM CST
Astronomical Twilight 5:30 AM CST 6:02 PM CST
Moon 3:41 AM CST (12/21) 1:43 PM CST (12/21)
Length of Visible Light 10h 16m
Length of Day
9h 13m
Waning Crescent, 12% of the Moon is Illuminated
Dec 21
Waning Crescent
Dec 24
New
Jan 1
First Quarter
Jan 9
Full
Jan 16
Last Quarter

Hourly Weather History & Observations

Time (CST) Temp. Windchill Dew Point Humidity Pressure Visibility Wind Dir Wind Speed Gust Speed Precip Events Conditions
12:15 AM 39.2 °F 35.9 °F 39.2 °F 100% 29.74 in 0.5 mi East 4.6 mph - N/A Fog Fog
12:35 AM 39.2 °F 37.0 °F 39.2 °F 100% 29.73 in 0.5 mi ESE 3.5 mph - N/A Fog Fog
12:55 AM 41.0 °F 37.1 °F 41.0 °F 100% 29.71 in 0.5 mi East 5.8 mph - N/A Fog Fog
1:15 AM 41.0 °F 39.0 °F 41.0 °F 100% 29.70 in 0.2 mi ENE 3.5 mph - N/A Fog Fog
1:35 AM 41.0 °F - 41.0 °F 100% 29.71 in 0.2 mi Calm Calm - N/A Fog Fog
1:55 AM 41.0 °F - 41.0 °F 100% 29.70 in 0.2 mi Calm Calm - N/A Fog Fog
2:15 AM 41.0 °F 39.0 °F 41.0 °F 100% 29.69 in 0.2 mi East 3.5 mph - N/A Fog Fog
2:35 AM 41.0 °F - 41.0 °F 100% 29.69 in 0.2 mi Calm Calm - N/A Fog Fog
2:55 AM 41.0 °F 38.0 °F 41.0 °F 100% 29.67 in 0.2 mi ENE 4.6 mph - N/A Fog Fog
3:15 AM 41.0 °F - 41.0 °F 100% 29.67 in 0.2 mi Calm Calm - N/A Fog Fog
3:35 AM 41.0 °F - 41.0 °F 100% 29.67 in 0.2 mi Calm Calm - N/A Fog Fog
3:55 AM 41.0 °F - 41.0 °F 100% 29.66 in 0.2 mi Calm Calm - N/A Fog Fog
4:15 AM 41.0 °F - 41.0 °F 100% 29.66 in 0.2 mi Calm Calm - N/A Fog Fog
4:35 AM 41.0 °F 37.1 °F 41.0 °F 100% 29.66 in 0.5 mi WNW 5.8 mph - N/A Fog Fog
4:55 AM 41.0 °F 38.0 °F 41.0 °F 100% 29.66 in 0.5 mi West 4.6 mph - N/A Fog Fog
5:15 AM 41.0 °F 38.0 °F 41.0 °F 100% 29.66 in 0.8 mi West 4.6 mph - N/A Rain Light Rain
5:35 AM 41.0 °F 38.0 °F 41.0 °F 100% 29.66 in 1.0 mi WNW 4.6 mph - N/A   Drizzle
5:55 AM 41.0 °F 39.0 °F 41.0 °F 100% 29.66 in 1.5 mi WNW 3.5 mph - N/A   Overcast
6:15 AM 41.0 °F 39.0 °F 41.0 °F 100% 29.66 in 2.5 mi West 3.5 mph - N/A   Overcast
6:55 AM 41.0 °F 39.0 °F 41.0 °F 100% 29.66 in 2.0 mi WSW 3.5 mph - N/A   Overcast
7:15 AM 41.0 °F 38.0 °F 41.0 °F 100% 29.67 in 2.5 mi SSW 4.6 mph - N/A   Overcast
7:35 AM 41.0 °F 38.0 °F 41.0 °F 100% 29.68 in 2.5 mi SW 4.6 mph - N/A   Overcast
7:55 AM 41.0 °F 36.4 °F 41.0 °F 100% 29.68 in 0.5 mi SW 6.9 mph - N/A Fog Fog
8:15 AM 41.0 °F 36.4 °F 41.0 °F 100% 29.68 in 1.0 mi SW 6.9 mph - N/A   Overcast
8:35 AM 41.0 °F 36.4 °F 41.0 °F 100% 29.69 in 2.5 mi WSW 6.9 mph - N/A   Overcast
8:55 AM 41.0 °F 35.2 °F 41.0 °F 100% 29.69 in 3.0 mi WSW 9.2 mph - N/A   Overcast
9:15 AM 41.0 °F 33.5 °F 41.0 °F 100% 29.71 in 3.0 mi WSW 13.8 mph - N/A   Overcast
9:35 AM 41.0 °F 33.9 °F 41.0 °F 100% 29.72 in 2.0 mi WSW 12.7 mph 18.4 mph N/A   Overcast
9:55 AM 41.0 °F 33.5 °F 41.0 °F 100% 29.72 in 2.0 mi WSW 13.8 mph - N/A   Overcast
10:15 AM 41.0 °F 33.9 °F 41.0 °F 100% 29.74 in 2.5 mi West 12.7 mph - N/A   Overcast
10:35 AM 41.0 °F 33.5 °F 41.0 °F 100% 29.74 in 3.0 mi WSW 13.8 mph 17.3 mph N/A   Overcast
10:55 AM 41.0 °F 34.7 °F 41.0 °F 100% 29.74 in 5.0 mi West 10.4 mph - N/A   Overcast
11:15 AM 41.0 °F 34.3 °F 41.0 °F 100% 29.73 in 7.0 mi West 11.5 mph - N/A   Overcast
11:35 AM 41.0 °F 33.9 °F 41.0 °F 100% 29.73 in 10.0 mi WSW 12.7 mph - N/A   Overcast
11:55 AM 41.0 °F 34.3 °F 41.0 °F 100% 29.73 in 5.0 mi WSW 11.5 mph - N/A   Overcast
12:15 PM 41.0 °F 32.8 °F 41.0 °F 100% 29.74 in 5.0 mi WSW 16.1 mph 19.6 mph N/A   Overcast
12:35 PM 41.0 °F 33.5 °F 41.0 °F 100% 29.74 in 7.0 mi WSW 13.8 mph - N/A   Overcast
12:55 PM 41.0 °F 33.1 °F 41.0 °F 100% 29.75 in 10.0 mi WSW 15.0 mph - N/A   Overcast
1:15 PM 42.8 °F 35.4 °F 41.0 °F 93% 29.75 in 10.0 mi WSW 15.0 mph 20.7 mph N/A   Overcast
1:35 PM 42.8 °F 35.8 °F 41.0 °F 93% 29.76 in 10.0 mi WSW 13.8 mph 20.7 mph N/A   Overcast
1:55 PM 41.0 °F 32.8 °F 41.0 °F 100% 29.77 in 10.0 mi WSW 16.1 mph 19.6 mph N/A   Overcast
2:15 PM 42.8 °F 35.4 °F 41.0 °F 93% 29.77 in 10.0 mi WSW 15.0 mph 18.4 mph N/A   Overcast
2:35 PM 42.8 °F 35.8 °F 41.0 °F 93% 29.79 in 10.0 mi WSW 13.8 mph 19.6 mph N/A   Overcast
2:55 PM 42.8 °F 35.1 °F 41.0 °F 93% 29.80 in 10.0 mi West 16.1 mph 24.2 mph N/A   Overcast
3:15 PM 41.0 °F 33.9 °F 41.0 °F 100% 29.81 in 10.0 mi West 12.7 mph 19.6 mph N/A   Overcast
3:35 PM 41.0 °F 33.1 °F 41.0 °F 100% 29.82 in 10.0 mi West 15.0 mph - N/A   Overcast
3:55 PM 41.0 °F 34.3 °F 41.0 °F 100% 29.83 in 10.0 mi WSW 11.5 mph - N/A   Overcast
4:15 PM 41.0 °F 33.9 °F 39.2 °F 93% 29.83 in 10.0 mi WSW 12.7 mph 17.3 mph N/A   Overcast
4:35 PM 41.0 °F 34.3 °F 39.2 °F 93% 29.84 in 10.0 mi West 11.5 mph - N/A   Overcast
4:55 PM 41.0 °F 35.2 °F 39.2 °F 93% 29.85 in 10.0 mi WSW 9.2 mph - N/A   Overcast
5:15 PM 41.0 °F 35.2 °F 39.2 °F 93% 29.86 in 10.0 mi WSW 9.2 mph - N/A   Overcast
5:35 PM 41.0 °F 35.2 °F 39.2 °F 93% 29.88 in 7.0 mi WSW 9.2 mph - N/A   Overcast
5:55 PM 41.0 °F 35.2 °F 39.2 °F 93% 29.89 in 7.0 mi WSW 9.2 mph - N/A   Overcast
6:15 PM 41.0 °F 35.8 °F 39.2 °F 93% 29.89 in 7.0 mi WSW 8.1 mph - N/A   Overcast
6:35 PM 41.0 °F 35.8 °F 39.2 °F 93% 29.91 in 7.0 mi WSW 8.1 mph - N/A   Overcast
6:55 PM 41.0 °F 35.8 °F 39.2 °F 93% 29.91 in 7.0 mi WSW 8.1 mph - N/A   Overcast
7:15 PM 41.0 °F 35.2 °F 39.2 °F 93% 29.92 in 10.0 mi WSW 9.2 mph - N/A   Overcast
7:35 PM 41.0 °F 37.1 °F 37.4 °F 87% 29.92 in 10.0 mi WSW 5.8 mph - N/A   Overcast
7:55 PM 41.0 °F 36.4 °F 37.4 °F 87% 29.92 in 10.0 mi WSW 6.9 mph - N/A   Overcast
8:15 PM 41.0 °F 35.2 °F 37.4 °F 87% 29.94 in 10.0 mi SW 9.2 mph - N/A   Overcast
8:35 PM 41.0 °F 35.8 °F 37.4 °F 87% 29.94 in 10.0 mi SW 8.1 mph - N/A   Overcast
8:55 PM 41.0 °F 36.4 °F 37.4 °F 87% 29.94 in 10.0 mi SW 6.9 mph - N/A   Overcast
9:15 PM 41.0 °F 35.8 °F 37.4 °F 87% 29.95 in 10.0 mi SW 8.1 mph - N/A   Overcast
9:35 PM 41.0 °F 35.8 °F 37.4 °F 87% 29.95 in 10.0 mi SW 8.1 mph - N/A   Overcast
9:55 PM 41.0 °F 38.0 °F 37.4 °F 87% 29.95 in 10.0 mi SW 4.6 mph - N/A   Overcast
10:15 PM 41.0 °F 37.1 °F 37.4 °F 87% 29.96 in 10.0 mi SW 5.8 mph - N/A   Overcast
10:35 PM 41.0 °F 37.1 °F 37.4 °F 87% 29.96 in 10.0 mi WSW 5.8 mph - N/A   Overcast
10:55 PM 39.2 °F 35.0 °F 37.4 °F 93% 29.96 in 10.0 mi SW 5.8 mph - N/A   Overcast
11:15 PM 39.2 °F 35.9 °F 37.4 °F 93% 29.96 in 10.0 mi SW 4.6 mph - N/A   Overcast
11:35 PM 37.4 °F 33.8 °F 37.4 °F 100% 29.98 in 10.0 mi SW 4.6 mph - N/A   Overcast
11:55 PM 39.2 °F 35.0 °F 37.4 °F 93% 29.99 in 7.0 mi WSW 5.8 mph - N/A   Overcast